User: anonymous   Login
Location: Luxembourg
(49.6117°N, 6.1300°E)
Time: 10:17:43
(UTC+02:00)
Language:

Tiangong 2 - Orbit

View from above orbital plane
View from above orbital plane
View from above satellite
View from above satellite

Ground track
Ground track

The orbit data is extracted from the following two-line orbital elements,

1 41765U 16057A   19139.20858731  .00004433  00000-0  54618-4 0  9991
2 41765  42.7825 139.7111 0006677  56.8446 355.7287 15.61551540152519
Epoch (UTC): 19 May 2019 05:00:21
Eccentricity: 0.0006677
inclination: 42.7825°
perigee height: 378 km
apogee height: 387 km
right ascension of ascending node: 139.7111°
argument of perigee: 56.8446°
revolutions per day: 15.61551540
mean anomaly at epoch: 355.7287°
orbit number at epoch: 15251

The dashed part of the orbit path shows where the satellite is in the earth's shadow,  

DLR